When you browse on this site, cookies collect data to enhance your experience and personalize the content and advertising you see.
Visit our Privacy Policy to learn more. By continuing to use the site, you agree to this use of cookies and data.
  • în România
  • Lista ţărilor
  • Pe 7 zile
  • Temperatura apei
  • Hartă satelitară
  • Meteo pe hartă
  • Widget-uri
  • user-avatar
    Intrare

    Meteo pe oră la Albany

    Astăzi, 18 Iunie, Marţi

    Timp Temperatura Precipitaţii Vânt Presiune Umiditate
    00:00 +12°C° 0 mm 1 m/s 768 mmHg 74%
    01:00 +12°C° 0 mm 1 m/s 767 mmHg 75%
    02:00 +10°C° 0 mm 2 m/s 767 mmHg 77%
    03:00 +10°C° 0 mm 2 m/s 766 mmHg 78%
    04:00 +9°C° 0 mm 3 m/s 766 mmHg 79%
    05:00 +8°C° 0 mm 3 m/s 766 mmHg 80%
    06:00 +8°C° 0 mm 3 m/s 766 mmHg 80%
    07:00 +7°C° 0 mm 4 m/s 766 mmHg 79%
    08:00 +6°C° 0 mm 4 m/s 766 mmHg 78%
    09:00 +8°C° 0 mm 4 m/s 766 mmHg 71%
    10:00 +11°C° 0 mm 4 m/s 766 mmHg 64%
    11:00 +13°C° 0 mm 5 m/s 766 mmHg 58%
    12:00 +14°C° 0 mm 5 m/s 766 mmHg 56%
    13:00 +14°C° 0 mm 4 m/s 765 mmHg 55%
    14:00 +15°C° 0 mm 4 m/s 764 mmHg 54%
    15:00 +14°C° 0 mm 4 m/s 764 mmHg 60%
    16:00 +12°C° 0 mm 3 m/s 764 mmHg 66%
    17:00 +11°C° 0 mm 3 m/s 764 mmHg 73%
    18:00 +10°C° 0 mm 3 m/s 764 mmHg 75%
    19:00 +10°C° 0 mm 3 m/s 764 mmHg 78%
    20:00 +9°C° 0 mm 3 m/s 764 mmHg 80%
    21:00 +8°C° 0 mm 3 m/s 764 mmHg 82%
    22:00 +8°C° 0 mm 3 m/s 765 mmHg 84%
    23:00 +8°C° 0 mm 3 m/s 765 mmHg 86%

    Mâine, 19 Iunie, Miercuri

    Timp Temperatura Precipitaţii Vânt Presiune Umiditate
    00:00 +8°C° 0 mm 3 m/s 764 mmHg 87%
    01:00 +8°C° 0 mm 3 m/s 764 mmHg 88%
    02:00 +8°C° 0 mm 3 m/s 764 mmHg 89%
    03:00 +7°C° 0 mm 3 m/s 764 mmHg 89%
    04:00 +7°C° 0 mm 3 m/s 764 mmHg 90%
    05:00 +7°C° 0 mm 3 m/s 764 mmHg 91%
    06:00 +7°C° 0 mm 3 m/s 764 mmHg 89%
    07:00 +7°C° 0 mm 3 m/s 764 mmHg 88%
    08:00 +7°C° 0 mm 3 m/s 765 mmHg 86%
    09:00 +9°C° 0 mm 3 m/s 765 mmHg 79%
    10:00 +11°C° 0 mm 3 m/s 765 mmHg 71%
    11:00 +14°C° 0 mm 2 m/s 765 mmHg 63%
    12:00 +15°C° 0 mm 2 m/s 764 mmHg 60%
    13:00 +16°C° 0 mm 1 m/s 764 mmHg 57%
    14:00 +16°C° 0 mm 1 m/s 763 mmHg 53%
    15:00 +15°C° 0 mm 1 m/s 763 mmHg 59%
    16:00 +13°C° 0 mm 1 m/s 763 mmHg 65%
    17:00 +12°C° 0 mm 1 m/s 764 mmHg 71%
    18:00 +12°C° 0 mm 1 m/s 764 mmHg 73%
    19:00 +11°C° 0 mm 1 m/s 764 mmHg 74%
    20:00 +10°C° 0 mm 2 m/s 764 mmHg 75%
    21:00 +9°C° 0 mm 2 m/s 764 mmHg 73%
    22:00 +8°C° 0 mm 2 m/s 764 mmHg 72%
    23:00 +8°C° 0 mm 2 m/s 764 mmHg 70%

    Poimâine, 20 Iunie, Joi

    Timp Temperatura Precipitaţii Vânt Presiune Umiditate
    00:00 +8°C° 0 mm 2 m/s 764 mmHg 69%
    01:00 +7°C° 0 mm 2 m/s 764 mmHg 68%
    02:00 +7°C° 0 mm 2 m/s 764 mmHg 68%
    03:00 +7°C° 0 mm 2 m/s 764 mmHg 69%
    04:00 +7°C° 0 mm 2 m/s 764 mmHg 71%
    05:00 +7°C° 0 mm 2 m/s 764 mmHg 72%
    06:00 +7°C° 0 mm 3 m/s 764 mmHg 72%
    07:00 +7°C° 0 mm 3 m/s 764 mmHg 71%
    08:00 +7°C° 0 mm 3 m/s 764 mmHg 71%
    09:00 +9°C° 0 mm 3 m/s 764 mmHg 65%
    10:00 +11°C° 0 mm 3 m/s 764 mmHg 59%
    11:00 +13°C° 0 mm 3 m/s 764 mmHg 53%
    12:00 +14°C° 0 mm 3 m/s 763 mmHg 51%
    13:00 +14°C° 0 mm 3 m/s 763 mmHg 48%
    14:00 +15°C° 0 mm 4 m/s 762 mmHg 45%
    15:00 +14°C° 0 mm 4 m/s 762 mmHg 49%
    16:00 +13°C° 0 mm 4 m/s 762 mmHg 53%
    17:00 +12°C° 0 mm 4 m/s 762 mmHg 57%
    18:00 +12°C° 0 mm 5 m/s 762 mmHg 57%
    19:00 +10°C° 0 mm 5 m/s 762 mmHg 58%
    20:00 +10°C° 0 mm 5 m/s 762 mmHg 59%
    21:00 +10°C° 0 mm 6 m/s 762 mmHg 58%
    22:00 +11°C° 0 mm 6 m/s 761 mmHg 57%
    23:00 +11°C° 0 mm 6 m/s 761 mmHg 56%

    21 Iunie, Vineri

    Timp Temperatura Precipitaţii Vânt Presiune Umiditate
    00:00 +11°C° 0 mm 6 m/s 761 mmHg 53%
    01:00 +11°C° 0 mm 6 m/s 760 mmHg 49%
    02:00 +11°C° 0 mm 7 m/s 760 mmHg 46%
    03:00 +11°C° 0 mm 6 m/s 759 mmHg 47%
    04:00 +11°C° 0 mm 6 m/s 759 mmHg 47%
    05:00 +11°C° 0 mm 6 m/s 759 mmHg 47%
    06:00 +10°C° 0.1 mm 6 m/s 758 mmHg 54%
    07:00 +9°C° 0.1 mm 6 m/s 758 mmHg 60%
    08:00 +9°C° 0.1 mm 6 m/s 758 mmHg 66%
    09:00 +11°C° 0.1 mm 6 m/s 758 mmHg 63%
    10:00 +13°C° 0.1 mm 6 m/s 758 mmHg 59%
    11:00 +15°C° 0.1 mm 6 m/s 758 mmHg 55%
    12:00 +16°C° 0 mm 5 m/s 757 mmHg 55%
    13:00 +19°C° 0 mm 4 m/s 756 mmHg 54%
    14:00 +20°C° 0 mm 4 m/s 755 mmHg 54%
    15:00 +19°C° 0 mm 3 m/s 755 mmHg 60%
    16:00 +18°C° 0 mm 3 m/s 755 mmHg 66%
    17:00 +16°C° 0 mm 2 m/s 755 mmHg 72%
    18:00 +15°C° 0 mm 2 m/s 756 mmHg 74%
    19:00 +15°C° 0 mm 2 m/s 756 mmHg 76%
    20:00 +13°C° 0 mm 3 m/s 756 mmHg 78%
    21:00 +12°C° 0 mm 3 m/s 756 mmHg 78%
    22:00 +12°C° 0 mm 3 m/s 756 mmHg 79%
    23:00 +12°C° 0 mm 3 m/s 756 mmHg 80%

    22 Iunie, Sâmbătă

    Timp Temperatura Precipitaţii Vânt Presiune Umiditate
    00:00 +11°C° 0 mm 3 m/s 755 mmHg 82%
    01:00 +11°C° 0 mm 3 m/s 755 mmHg 83%
    02:00 +11°C° 0 mm 3 m/s 755 mmHg 85%
    03:00 +10°C° 0 mm 3 m/s 755 mmHg 84%
    04:00 +10°C° 0 mm 3 m/s 755 mmHg 84%
    05:00 +10°C° 0 mm 3 m/s 755 mmHg 83%
    06:00 +10°C° 0 mm 3 m/s 755 mmHg 83%
    07:00 +11°C° 0 mm 3 m/s 755 mmHg 82%
    08:00 +11°C° 0 mm 4 m/s 755 mmHg 82%
    09:00 +13°C° 0 mm 4 m/s 754 mmHg 74%
    10:00 +16°C° 0 mm 5 m/s 754 mmHg 66%
    11:00 +19°C° 0 mm 6 m/s 753 mmHg 57%
    12:00 +20°C° 0 mm 6 m/s 752 mmHg 57%
    13:00 +21°C° 0 mm 7 m/s 751 mmHg 57%
    14:00 +22°C° 0 mm 7 m/s 751 mmHg 57%
    15:00 +21°C° 0 mm 7 m/s 750 mmHg 59%
    16:00 +20°C° 0 mm 7 m/s 750 mmHg 62%
    17:00 +20°C° 0 mm 7 m/s 749 mmHg 64%
    18:00 +18°C° 0.2 mm 7 m/s 749 mmHg 67%
    19:00 +18°C° 0.2 mm 7 m/s 748 mmHg 69%
    20:00 +17°C° 0.2 mm 8 m/s 748 mmHg 72%
    21:00 +17°C° 2.2 mm 8 m/s 748 mmHg 79%
    22:00 +16°C° 2.2 mm 8 m/s 747 mmHg 85%
    23:00 +15°C° 2.2 mm 9 m/s 747 mmHg 92%

    23 Iunie, Duminică

    Timp Temperatura Precipitaţii Vânt Presiune Umiditate
    00:00 +15°C° 1.2 mm 8 m/s 748 mmHg 91%
    01:00 +14°C° 1.2 mm 7 m/s 748 mmHg 91%
    02:00 +14°C° 1.2 mm 6 m/s 749 mmHg 91%
    03:00 +13°C° 0 mm 5 m/s 749 mmHg 91%
    04:00 +12°C° 0 mm 5 m/s 749 mmHg 92%
    05:00 +12°C° 0 mm 5 m/s 750 mmHg 93%
    06:00 +12°C° 0 mm 5 m/s 750 mmHg 93%
    07:00 +10°C° 0 mm 5 m/s 750 mmHg 93%
    08:00 +10°C° 0 mm 5 m/s 750 mmHg 93%
    09:00 +13°C° 0.1 mm 6 m/s 750 mmHg 86%
    10:00 +14°C° 0.1 mm 6 m/s 750 mmHg 79%
    11:00 +16°C° 0.1 mm 7 m/s 750 mmHg 73%
    12:00 +16°C° 0.2 mm 8 m/s 750 mmHg 69%
    13:00 +17°C° 0.2 mm 8 m/s 749 mmHg 65%
    14:00 +17°C° 0.2 mm 9 m/s 749 mmHg 62%
    15:00 +16°C° 0.2 mm 9 m/s 749 mmHg 66%
    16:00 +15°C° 0.2 mm 9 m/s 749 mmHg 70%
    17:00 +12°C° 0.2 mm 9 m/s 750 mmHg 75%
    18:00 +12°C° 0.2 mm 9 m/s 750 mmHg 77%
    19:00 +11°C° 0.2 mm 8 m/s 751 mmHg 80%
    20:00 +10°C° 0.2 mm 8 m/s 751 mmHg 83%
    21:00 +10°C° 0 mm 8 m/s 751 mmHg 81%
    22:00 +9°C° 0 mm 8 m/s 752 mmHg 79%
    23:00 +8°C° 0 mm 9 m/s 752 mmHg 77%
    Arată mai mult